Other Public Products
Issued by NWS Grand Forks, ND

Home | Current Version | Previous Version | Text Only | Print | Product List | Glossary On
Versions: 1 2 3 4 5 6 7 8 9 10 11 12 13 14 15 16 17 18 19 20 21 22 23 24 25 26 27 28 29 30 31 32 33 34 35 36 37 38 39 40 41 42 43 44 45 46 47 48 49 50
000
FPUS83 KFGF 040131
OPUFGF
PRAIRIE TO PINES WEATHER ROUNDUP
NATIONAL WEATHER SERVICE EASTERN NORTH DAKOTA/GRAND FORKS ND
800 PM CDT MON AUG 03 2015

 **SATELLITE DATA USED TO AUGMENT SKY COVER AT AUTOMATED STATIONS**
 *****  WEATHER ACROSS EASTERN NORTH DAKOTA  *****

CITY           SKY/WX    TMP DP  RH WIND       PRES   REMARKS
GRAND FORKS    PTCLDY    75  50  41 NW3       29.90S
GRAND FORKS AF CLEAR     72  53  51 N2        29.91S
GRAND CITY NWS   N/A     73 N/A N/A N7          N/A
BUXTON         NOT AVBL
DEVILS LAKE    CLEAR     72  46  40 N5        29.93S
FARGO          CLEAR     75  49  39 N7        29.91F
WAHPETON ARPT  CLEAR     72  45  37 NW5       29.93S
$$

 *****  WEATHER ACROSS CENTRAL AND WESTERN NORTH DAKOTA  *****

CITY           SKY/WX    TMP DP  RH WIND       PRES   REMARKS
JAMESTOWN      CLEAR     73  55  53 N5        29.94F
BISMARCK       SUNNY     78  47  33 NE8       29.95S
MINOT          SUNNY     74  48  39 NE5       29.94F
MINOT AFB      SUNNY     81  49  32 NW2       29.93F
GARRISON         N/A     76  51  41 NE3       29.95F
WILLISTON      SUNNY     82  43  25 E9        29.93F
DICKINSON      SUNNY     76  52  43 E9        29.94F
HETTINGER      SUNNY     79  51  37 E8        29.96F
$$

 *****  OTHER OBSERVATIONS NORTHEAST NORTH DAKOTA  *****

CITY           SKY/WX    TMP DP  RH WIND       PRES   REMARKS
WALHALLA       FAIR      72  52  49 MISG      29.90S
LANGDON        FAIR      70  50  49 NW6       29.94S
CAVALIER       FAIR      73  50  43 NE5       29.90S
GRAFTON        FAIR      73  55  53 NW3       29.90S
CANDO          NOT AVBL
FORT TOTTEN      N/A     73  46  37 CALM      29.95S
ROLLA          NOT AVBL
RUGBY          NOT AVBL
 ***** THE ABOVE OBSERVATIONS ARE NON NWS ARE NOT QUALITY
        CONTROLLED AND MAY MIS-REPORT RAIN FOR SNOW...
$$

 *****  OTHER OBSERVATIONS SOUTHEAST NORTH DAKOTA *****

CITY           SKY/WX    TMP DP  RH WIND       PRES   REMARKS
COOPERSTOWN    NOT AVBL
VALLEY CITY    FAIR      72  54  53 N3        29.94S
OAKES          NOT AVBL
GWINNER        FAIR      73  52  46 NW5       29.95S
BUFFALO        NOT AVBL
WYNDMERE         N/A     72  57  60 N2          N/A
 ***** THE ABOVE OBSERVATIONS ARE NON NWS ARE NOT QUALITY
       CONTROLLED AND MAY MIS-REPORT RAIN FOR SNOW...
$$

  *****  WEATHER ACROSS NORTHERN MINNESOTA  *****

CITY           SKY/WX    TMP DP  RH WIND       PRES   REMARKS
FLAG ISLAND    MOCLDY    66  52  59 NW15      29.87S
WARROAD        CLEAR     66  55  68 NW3       29.90R
ROSEAU         CLEAR     66  57  72 CALM      29.90S
HALLOCK        CLEAR     72  52  49 N5        29.89S
THF RVR FALLS  CLEAR     70  48  46 NW3       29.91F
HALSTAD        NOT AVBL
FOSSTON        CLEAR     68  48  49 NW5       29.93S
BAUDETTE       MOCLDY    67  54  63 N3        29.88R
WASKISH        MOCLDY    66  52  59 W10       29.90R
CROOKSTON      CLEAR     72  52  49 CALM      29.91F
$$
  *****  WEATHER ACROSS CENTRAL AND WEST MINNESOTA  *****

CITY           SKY/WX    TMP DP  RH WIND       PRES   REMARKS
BEMIDJI        MOCLDY    67  50  54 N6        29.92R
PARK RAPIDS    CLEAR     70  49  47 NW10      29.93R
WADENA         CLEAR     66  48  52 NW8       29.93S
DETROIT LAKES  CLEAR     70  50  49 CALM      29.94S
MOORHEAD       CLEAR     70  54  56 N5        29.92F
FERGUS FALLS   CLEAR     70  54  56 CALM      29.92S
ELBOW LAKE     FAIR      70  54  56 CALM      29.93S
MORRIS MN      CLEAR     70  54  56 NW5       29.93S
STAPLES        CLEAR     66  48  52 NW6       29.92S
WHEATON        CLEAR     70  52  52 CALM      29.95S
$$
  *****  WEATHER ELSEWHERE ACROSS MINNESOTA  *****

CITY           SKY/WX    TMP DP  RH WIND       PRES   REMARKS
DULUTH         MOCLDY    67  52  58 NW12      29.87R
INTRNTL FALLS  CLOUDY    63  53  70 NW7       29.87S
ELY            MOCLDY    57  55  94 W7        29.86S
CLOQUET        CLOUDY    66  50  55 NW9       29.89R
BRAINERD       PTCLDY    70  51  51 NW7       29.91R
HIBBING        CLOUDY    64  51  62 NW12      29.89R
ALEXANDRIA     CLEAR     72  49  44 NW8       29.95R
SAINT CLOUD    CLEAR     72  52  49 NW7       29.90R
MINNEAPOLIS    PTCLDY    76  51  41 NW12      29.89S
$$

  *****  WEATHER ACROSS SOUTH DAKOTA  *****

CITY           SKY/WX    TMP DP  RH WIND       PRES   REMARKS
SIOUX FALLS    PTCLDY    78  62  57 NW5       29.95R
BROOKINGS      CLEAR     72  57  60 N6        29.98R
WATERTOWN      CLEAR     73  53  49 NE7       29.96S
HURON          CLEAR     78  57  48 NE5       29.94R
SISSETON         N/A     74  58  57 N3        29.93S
ABERDEEN       CLEAR     76  55  48 NE8       29.93F
MITCHELL       CLEAR     77  62  59 NE7       29.94S
PIERRE         CLEAR     81  56  42 E6        29.91S
MOBRIDGE       SUNNY     81  52  36 E6        29.92S
RAPID CITY     PTSUNNY   78  62  57 SE9       29.95R
$$

  *****  SOME WEATHER IN NEARBY STATES *****

CITY           SKY/WX    TMP DP  RH WIND       PRES   REMARKS
GLASGOW MT     SUNNY     85  45  24 E16       29.87F
GREAT FALLS MT MOSUNNY   91  42  18 SE9       29.78F
CHEYENNE WY    CLOUDY    76  35  22 SE14G22   30.10F
SCOTTSBLUFF NE PTSUNNY   84  51  31 S3        29.95R
OMAHA NE       MOCLDY    79  66  64 NE5       29.93S
DES MOINES IA  PTCLDY    77  55  46 N6        29.94R
DAVENPORT IA   CLEAR     70  60  70 W6        29.91R
CHICAGO IL     PTCLDY    76  50  40 NW10      29.86S
EAU CLAIRE WI  CLEAR     71  51  49 NW3       29.88R
LA CROSSE WI   PTCLDY    75  52  44 W7        29.88R
$$

  *****  SOME NATIONAL WEATHER *****

CITY           SKY/WX    TMP DP  RH WIND       PRES   REMARKS
LA GUARDIA NY  PTCLDY    87  58  37 SW10      29.78R
RALEIGH NC     PTCLDY    85  70  60 S6        29.91R
ATLANTA GA     PTCLDY    85  67  54 CALM      29.92S
NEW ORLEANS LA PTCLDY    83  71  67 SW7       29.88F
OKLAHOMA CITY  MOCLDY    81  67  62 SE6       29.91S
ALBUQUERQUE NM MOSUNNY   88  42  20 NW13      30.08S
SALT LAKE CITY PTSUNNY   69  57  65 S3        30.08F
LOS ANGELES CA MOSUNNY   74  64  71 W14       29.87F
BOISE ID       PTSUNNY   91  47  21 NE3       29.85F
SEATTLE WA     PTSUNNY   82  55  39 SW5       29.90S
$$

*** WEATHER ACROSS MANITOBA...SASKATCHEWAN AND ONTARIO ***
                ***ONTARIO***

CITY           SKY/WX    TMP DP  RH WIND       PRES   REMARKS
GERALDTON      MOCLDY    57  50  77 NW10      29.75R
THUNDER BAY    MOCLDY    61  59  94 N3        29.78
SIOUX LOOKOUT  MOCLDY    55  54  94 N9        29.83R
TORONTO        MOCLDY    72  52  49 W10G17    29.77R
BIG TROUT LK   CLOUDY    52  52 100 N9        29.82R
PICKLE LAKE    MOCLDY    52  46  82 N7        29.81R
DRYDEN         CLOUDY    57  54  88 NW6       29.85R
KENORA         MOCLDY    61  55  82 N3        29.88S
$$
                *** MANITOBA***

CITY           SKY/WX    TMP DP  RH WIND       PRES   REMARKS
BRANDON        MOSUNNY   72  52  49 NW7       29.93S
DAUPHIN        SUNNY     70  55  60 E5        29.92R
ISLAND LAKE    CLOUDY    54  48  82 N6        29.93R
PILOT MOUND      N/A     70  52  52 NW6         N/A
THE PAS        MOSUNNY   66  54  63 NE6       29.96R
THOMPSON       LGT RAIN  57  54  88 NE7       29.95R
WINNIPEG       PTCLDY    68  54  60 NE9       29.90R
LYNN LAKE      CLOUDY    63  50  63 W7        29.97R
CHURCHILL      LGT RAIN  46  46 100 N8        29.95S FOG
GILLAM         MOCLDY    55  48  76 N9        29.94R
$$
                ***SASKATCHEWAN***

CITY           SKY/WX    TMP DP  RH WIND       PRES   REMARKS
ESTEVAN        MOSUNNY   77  48  36 N7        29.95F
KINDERSLEY     PTSUNNY   81  54  39 SE15G22   29.86F
LLOYDMINSTER   PTSUNNY   77  54  44 E20       29.87F
PRINCE ALBERT  MOSUNNY   75  57  53 SW6       29.93F
REGINA         MOSUNNY   75  54  46 NE10      29.95F
YORKTON        SUNNY     72  52  49 NW5       29.95F



USA.gov is the U.S. government's official web portal to all federal, state and local government web resources and services.